Wind_Speed
33 33 33 31 30 27 25 24 22 22 22 20 18 18 19 20 20 20 20 20 20 21 20 17 17 16 14 12 11 11 9 8 8 8 8 7 8 7 7 8 8 9 9 9 8 8 8 8 9 8 8 8 7 8 9 8 8 8 6 4 4 3 2 1 2 3 1 1 4 5 4 3 3 2 1 1 2 2 2 3 3 4 5 7 7
33 33 34 32 30 28 26 26 24 23 23 22 20 19 19 20 20 20 20 20 20 21 19 17 16 15 13 12 11 10 9 8 7 7 7 7 7 7 7 7 8 9 9 8 7 6 7 7 7 7 7 7 7 7 8 8 9 9 7 6 5 5 4 2 1 1 2 3 4 4 3 2 1 1 1 1 1 1 2 2 3 3 4 6 6
34 34 35 35 32 29 29 28 25 23 22 22 22 20 20 20 20 20 20 20 20 21 19 17 15 14 12 10 9 8 8 7 5 5 6 7 8 7 7 6 7 8 7 6 5 5 6 6 6 7 7 8 7 6 6 7 9 10 8 7 6 5 4 2 1 1 2 4 4 4 4 4 2 2 3 3 3 2 2 3 4 4 4 5 6
35 35 36 36 33 32 31 30 27 25 23 23 23 23 22 21 21 21 22 21 20 21 19 17 16 15 12 9 8 7 7 8 7 6 7 8 8 8 7 7 7 8 7 6 5 6 6 6 5 6 7 7 7 6 6 7 10 11 10 8 7 5 4 3 1 1 1 1 3 4 5 5 5 7 5 3 3 3 3 4 4 4 4 4 4
35 36 37 37 36 34 33 32 30 28 26 25 24 24 23 22 21 20 21 21 21 21 19 17 17 16 14 11 10 10 9 11 10 9 9 9 8 7 7 8 8 8 8 7 6 6 6 6 6 6 6 7 7 6 7 8 9 11 10 9 7 5 4 3 1 1 1 1 3 3 4 5 6 8 7 3 3 5 5 4 4 4 4 4 4
35 36 38 38 37 36 35 33 32 30 28 26 24 22 22 22 21 19 20 21 21 21 19 18 19 18 17 15 15 14 14 14 11 10 10 8 7 6 6 7 8 8 8 7 7 6 6 6 6 6 6 7 7 8 8 9 9 10 10 9 8 6 6 5 3 2 3 2 2 2 3 5 5 7 8 6 5 5 5 5 3 3 3 4 5
35 36 37 38 38 38 38 35 34 32 29 27 26 23 22 22 21 19 19 20 21 21 20 19 20 20 19 17 16 15 15 13 10 9 8 7 7 7 6 6 7 7 8 7 7 7 7 7 6 6 6 7 8 9 9 9 10 10 10 10 9 7 6 5 4 3 3 3 2 1 3 4 4 6 8 9 9 7 6 6 4 3 3 4 5
36 36 37 39 40 40 39 36 35 32 30 29 28 24 23 23 22 19 19 20 21 21 21 21 20 20 20 18 16 15 13 11 10 10 9 7 8 8 6 6 6 7 7 7 7 7 7 7 6 6 7 8 8 9 10 10 10 10 10 11 9 8 7 6 5 4 4 4 3 2 2 3 4 5 6 9 11 9 7 6 5 3 2 2 2
35 37 38 38 39 40 38 36 35 33 31 30 27 24 23 23 22 20 20 20 21 21 22 22 21 21 20 19 17 14 12 9 9 10 10 9 9 8 7 5 6 7 7 7 7 7 7 6 6 7 7 8 8 9 10 10 9 9 10 11 10 8 8 8 7 6 5 5 4 4 3 3 3 3 4 6 8 9 9 8 7 5 2 3 2
32 35 38 38 38 39 37 35 35 33 31 29 26 24 24 24 22 21 21 20 20 22 23 24 24 22 20 20 18 15 12 10 10 11 11 10 9 9 8 6 6 6 7 8 8 7 6 5 6 7 7 7 8 9 9 9 9 9 10 11 10 9 9 9 8 7 6 6 5 5 4 3 2 1 2 4 6 8 8 8 8 7 5 4 4
29 32 37 38 38 38 37 36 35 34 31 29 27 25 25 24 23 22 21 20 21 23 24 25 25 23 21 21 20 17 14 13 13 13 13 11 11 11 8 6 5 4 6 8 8 7 6 5 6 7 8 8 8 9 9 9 9 9 10 10 10 10 10 10 9 8 7 6 5 5 4 3 2 0 1 3 4 6 8 7 7 7 5 4 5
29 30 33 38 39 39 39 38 36 34 32 30 28 27 26 25 23 22 22 21 21 24 25 25 26 24 23 22 21 18 15 15 15 15 14 12 11 11 9 7 6 4 6 7 7 7 6 6 6 7 8 8 8 9 9 9 8 9 9 8 9 10 10 10 10 8 7 6 5 4 3 3 2 1 2 2 3 5 7 7 7 6 4 4 6
30 29 29 36 40 40 41 39 37 35 33 31 29 27 26 25 24 23 22 22 22 24 26 26 26 25 24 23 21 19 17 17 17 15 14 13 11 10 9 8 8 6 6 7 7 7 6 7 7 7 7 7 8 9 9 9 7 8 8 7 8 8 8 9 10 9 7 7 6 4 3 3 1 2 2 2 3 5 6 7 8 7 6 6 7
28 26 26 33 39 41 41 40 38 36 33 31 29 27 26 25 25 24 22 22 22 25 26 27 26 25 25 24 22 20 19 18 18 16 14 14 12 11 10 9 9 8 6 6 6 7 7 7 7 7 7 7 8 9 9 9 7 7 7 7 7 7 7 8 9 9 9 8 7 5 4 3 1 2 3 3 4 4 5 7 8 7 7 8 8
22 19 21 30 38 40 41 40 38 36 34 32 30 28 26 25 25 25 23 21 22 24 25 26 26 25 25 25 23 22 21 20 19 18 16 15 14 13 12 11 10 9 7 6 6 7 8 8 8 8 7 7 8 8 8 8 8 8 8 8 8 7 7 8 8 9 9 9 9 8 7 4 3 2 2 4 4 4 5 7 8 8 8 8 8
13 15 17 28 36 38 40 41 39 37 35 33 31 29 27 25 23 24 23 22 22 23 25 25 25 25 25 25 24 23 23 23 21 20 18 17 17 16 14 13 11 10 9 8 7 8 8 9 8 8 8 8 7 8 8 8 8 7 7 8 7 7 7 7 8 8 8 10 10 10 9 6 5 5 4 3 4 5 6 7 9 9 9 10 9
16 20 21 26 35 38 40 41 40 38 36 34 32 29 27 24 23 23 23 22 21 21 22 24 24 25 24 24 24 23 23 22 21 20 18 17 18 18 16 14 13 12 11 10 9 9 9 9 9 8 9 8 7 8 8 7 7 7 7 7 6 6 6 7 8 8 8 10 10 10 11 9 7 7 7 5 5 6 7 8 9 10 10 10 10
20 24 25 25 31 37 39 40 40 40 38 35 32 29 27 25 23 22 22 22 21 19 20 22 24 25 24 24 23 22 22 21 20 19 18 17 17 17 17 17 16 14 13 11 11 10 9 9 9 9 10 9 8 9 8 7 6 6 7 7 7 7 7 8 8 8 9 10 11 11 11 10 9 9 9 9 8 8 9 9 10 10 9 9 9
21 22 24 26 29 34 38 40 40 40 39 36 34 31 29 28 26 24 22 20 20 19 19 20 22 23 23 23 22 22 22 21 20 19 19 18 17 16 16 17 17 16 15 13 12 11 10 10 10 10 10 10 10 9 9 8 7 7 7 7 7 8 8 8 8 8 9 10 10 11 12 11 10 10 10 11 10 10 10 10 10 9 8 8 8
24 22 22 25 28 31 35 38 39 39 38 37 36 34 33 31 30 28 26 25 24 24 24 23 22 22 22 22 22 22 22 21 20 20 20 19 18 17 17 16 16 16 16 15 14 12 11 10 10 10 11 11 11 10 10 10 9 8 7 7 8 8 9 9 9 9 9 10 11 11 12 11 11 10 10 11 11 11 11 11 11 9 8 8 8
25 24 23 24 25 27 31 35 36 35 35 36 36 36 36 35 34 32 30 29 28 27 26 25 22 21 21 21 22 22 22 22 21 21 21 20 19 18 17 16 15 16 15 16 16 14 12 11 10 10 10 11 11 11 12 11 11 10 9 9 9 8 9 9 10 10 10 11 12 12 13 12 12 11 10 10 11 11 12 12 10 9 7 7 9
20 20 20 22 23 23 26 31 34 33 31 32 34 35 35 35 35 33 30 29 28 25 25 25 22 20 21 21 22 22 23 23 23 23 22 21 20 19 18 17 16 15 14 16 17 16 14 13 11 10 10 10 11 12 13 13 12 11 10 10 10 9 9 9 10 11 11 11 12 13 13 12 13 13 11 11 11 12 13 13 12 11 10 9 8
15 13 13 15 17 19 21 23 27 30 29 29 32 34 33 32 32 33 31 28 27 25 25 25 23 21 20 21 22 23 23 23 23 23 23 22 21 21 20 20 18 16 15 15 17 16 15 15 14 13 11 11 12 12 13 14 13 12 11 11 11 11 11 10 10 10 10 11 12 12 12 11 12 13 12 11 10 10 11 13 13 13 14 12 9
13 12 12 13 15 19 21 20 20 23 26 27 30 33 33 32 30 31 31 28 26 26 26 26 25 22 21 21 22 23 23 23 23 23 22 22 22 21 21 21 20 17 15 15 16 17 16 16 16 15 14 13 13 12 13 13 13 13 12 11 11 12 12 12 11 11 11 12 12 12 12 11 12 13 12 11 11 11 11 12 13 13 15 15 13
15 13 13 15 17 17 19 21 18 17 22 26 28 31 33 32 29 28 28 27 26 26 26 27 27 24 22 21 21 22 22 22 22 22 22 21 21 21 21 21 20 18 15 15 16 17 17 17 17 17 17 16 15 14 13 13 13 13 13 12 12 11 11 12 13 12 12 13 13 13 12 11 12 13 12 11 11 12 12 13 14 14 14 15 15
16 15 14 15 16 14 14 17 16 16 21 25 27 27 27 28 27 25 26 26 27 27 27 29 30 27 24 22 21 22 22 21 21 21 21 21 20 20 20 20 20 19 17 16 16 17 18 18 17 17 17 17 16 15 14 14 14 14 14 14 13 12 11 12 13 14 14 14 14 14 13 13 13 14 13 12 12 12 13 13 13 13 12 13 14
15 15 14 14 13 11 9 8 9 12 17 22 24 25 24 26 27 26 27 27 27 27 29 30 32 29 26 23 22 22 21 21 21 20 20 20 20 20 20 20 20 19 19 18 18 18 19 19 18 17 17 16 16 15 15 15 15 14 14 14 13 13 12 12 13 13 14 15 15 15 14 14 14 14 14 13 13 13 13 13 12 11 10 10 11
15 15 14 14 12 9 8 8 8 11 15 18 20 22 22 24 26 26 27 28 28 28 30 31 31 29 26 25 23 22 22 21 21 21 20 20 20 21 21 21 22 21 21 20 20 20 20 20 20 19 18 17 16 16 15 15 15 15 15 15 15 14 14 13 13 13 13 14 15 15 15 15 15 15 15 15 15 15 15 14 12 11 9 9 10
17 16 15 14 13 11 11 12 12 12 12 12 14 16 18 20 22 21 21 25 26 26 28 29 28 26 24 23 22 22 22 21 21 21 20 20 21 21 22 23 24 24 23 22 22 22 22 21 21 20 19 19 18 17 16 15 15 14 14 14 14 14 15 15 15 15 15 15 15 16 16 16 16 16 16 16 16 16 16 16 14 11 11 12 13
17 17 17 16 15 14 14 15 14 13 13 14 15 16 16 17 19 17 16 18 19 20 22 24 25 25 24 22 20 20 21 22 22 22 21 21 21 21 22 23 24 25 24 24 24 24 24 23 22 21 21 20 20 19 17 16 15 14 14 14 13 14 14 15 16 17 17 17 16 17 17 17 17 16 16 15 15 15 16 17 16 15 14 15 17
16 16 16 15 15 14 14 15 16 17 16 16 16 15 14 14 14 14 13 13 14 15 14 14 16 19 20 19 17 18 20 21 21 22 22 22 21 20 21 22 23 24 24 25 25 25 25 25 24 23 22 21 21 20 19 18 17 17 17 17 16 16 15 16 16 17 17 17 17 17 17 18 18 18 18 17 17 17 17 17 18 18 17 18 19
15 15 15 15 14 13 13 13 15 16 16 16 15 14 12 11 11 10 9 9 11 10 8 8 11 14 16 15 14 15 16 16 17 18 19 21 20 19 19 20 22 24 24 24 25 25 26 26 26 25 23 22 21 20 20 20 20 20 20 21 20 19 18 17 17 16 15 14 14 15 15 16 16 16 17 17 18 18 18 19 19 19 20 20 20
18 17 16 16 16 16 15 14 13 13 14 15 15 15 13 11 10 9 7 8 10 9 9 12 14 14 13 12 12 13 13 11 12 13 15 17 18 18 18 19 21 23 24 24 25 25 25 25 25 25 25 23 22 21 21 21 21 20 21 22 23 22 22 21 19 18 17 15 14 14 14 13 13 13 14 15 16 16 17 18 19 20 21 21 22
18 18 18 16 16 17 16 15 16 15 16 17 17 17 16 14 13 12 10 10 12 12 13 14 13 10 8 8 9 9 9 9 9 11 12 13 15 16 16 17 18 21 24 25 26 26 26 25 23 23 24 23 22 22 22 22 22 21 21 22 23 23 23 22 22 21 20 19 18 17 17 16 14 14 14 14 15 16 17 18 19 20 21 21 22
19 19 20 18 17 18 18 18 19 19 19 19 18 18 17 16 15 15 14 13 14 14 13 12 10 8 7 6 7 7 7 8 8 10 11 12 12 14 14 14 15 18 21 23 25 27 27 26 23 22 22 22 22 22 22 23 24 24 24 24 24 24 24 24 23 23 22 21 20 19 20 19 19 18 18 18 18 19 20 21 22 22 22 22 22
21 21 21 20 18 18 19 20 20 19 19 20 19 18 18 16 15 15 15 14 14 14 12 10 10 10 9 8 9 9 9 8 8 9 10 12 12 13 14 14 15 17 19 21 22 23 25 26 25 23 22 22 22 22 22 22 22 23 25 25 25 25 26 25 24 23 23 22 21 21 21 22 22 22 21 21 21 22 24 26 26 26 26 26 25
22 21 21 20 18 17 18 18 18 17 16 17 17 17 16 16 16 15 15 14 13 12 11 9 8 8 8 8 8 8 8 8 8 8 8 10 12 12 13 15 16 16 17 18 19 21 23 24 24 24 24 24 23 23 23 22 21 20 22 25 27 27 27 27 26 25 24 24 24 25 26 26 27 27 26 25 24 24 26 27 28 29 29 29 29
22 21 20 19 18 18 18 17 16 15 14 13 13 12 13 14 14 13 13 13 13 12 10 8 7 6 5 5 5 5 5 6 6 6 6 8 9 10 11 13 14 14 13 14 17 20 22 22 22 22 23 23 24 25 25 26 24 21 20 23 26 29 29 30 29 29 28 28 28 29 29 29 30 31 31 30 28 27 28 29 30 31 32 33 32
21 20 20 18 17 17 17 16 15 15 13 12 10 9 9 9 9 9 10 10 10 10 9 8 7 6 5 5 4 4 4 4 4 4 4 5 7 8 10 10 10 10 10 10 12 15 18 19 20 20 21 21 23 24 26 27 27 26 24 23 25 29 31 32 32 32 31 32 32 31 31 30 30 31 31 31 31 30 30 31 32 33 35 36 34
20 19 18 17 15 14 14 15 15 14 12 10 9 7 6 5 5 5 6 6 6 7 7 6 6 6 5 4 4 3 4 4 4 4 4 4 5 6 8 8 8 9 8 8 10 11 13 14 15 17 18 18 19 20 22 24 24 26 27 25 25 28 31 32 32 33 33 34 34 33 32 31 30 30 30 30 31 30 31 32 32 33 35 35 34
20 18 17 16 13 11 11 12 12 12 11 10 8 7 6 5 5 5 4 4 3 4 5 5 6 6 6 5 5 5 5 5 5 5 5 6 6 6 7 8 8 7 7 7 8 9 10 10 10 11 12 13 13 14 17 19 18 18 19 20 20 23 26 28 29 30 31 31 32 31 30 29 30 30 30 30 30 30 30 32 33 34 34 34 33
18 16 15 14 12 10 8 8 9 9 10 9 9 8 7 7 7 7 6 5 4 4 5 5 5 6 6 6 7 7 7 7 7 7 7 7 7 7 8 8 7 7 7 7 7 7 8 7 6 6 6 5 5 7 11 13 13 14 16 16 16 18 21 23 25 25 25 26 27 27 28 28 28 29 29 29 29 29 30 31 32 32 32 32 32
16 14 13 11 9 8 7 8 8 7 7 8 7 7 7 7 7 7 6 6 5 5 4 4 4 5 5 6 7 7 8 8 8 8 9 9 9 9 9 8 8 7 7 7 7 7 7 6 4 4 3 3 3 4 6 7 7 8 11 13 13 14 16 18 20 20 21 22 23 24 26 27 27 27 28 28 28 29 29 29 30 30 30 30 30
15 13 12 9 8 7 7 8 9 8 8 7 7 7 7 7 8 8 7 6 6 5 4 4 4 4 4 5 6 7 7 8 9 9 9 9 10 10 10 9 9 9 8 8 8 8 8 7 6 5 5 5 6 7 7 7 6 6 7 9 10 11 13 14 16 17 17 19 21 22 24 25 26 27 27 28 28 28 28 28 28 29 29 29 29
15 13 12 10 8 7 7 8 8 8 8 8 7 8 8 8 8 8 8 8 7 6 6 5 5 5 5 5 6 6 7 7 8 9 9 9 10 10 10 10 10 9 9 9 9 9 9 9 8 8 8 8 8 9 9 9 9 9 10 11 12 13 14 15 16 17 17 17 19 20 22 23 24 25 26 27 28 27 27 26 26 27 28 29 30
15 13 11 8 6 6 6 7 7 7 8 8 8 8 8 8 8 8 8 9 9 8 7 7 7 7 7 7 7 7 7 7 8 8 9 9 10 10 10 10 10 10 10 11 11 11 11 11 11 11 11 11 11 11 11 11 12 13 14 15 15 16 17 19 20 20 20 20 21 21 22 22 23 23 24 25 26 25 25 26 26 25 27 28 29
13 11 8 6 5 5 6 6 6 6 6 7 8 8 8 8 8 8 8 9 10 10 10 9 9 9 9 9 9 10 10 9 9 9 9 9 10 10 11 11 12 12 13 13 13 13 13 14 14 14 14 14 13 13 13 14 15 17 18 18 19 19 20 22 24 25 25 25 25 24 24 23 23 23 23 23 24 24 24 25 25 26 27 28 27
12 9 7 6 5 5 5 6 6 5 4 5 5 6 7 8 8 8 9 10 10 11 12 12 12 11 11 11 12 12 13 12 12 12 12 11 11 12 11 11 12 14 15 15 15 15 16 17 17 17 17 17 16 15 15 17 18 19 20 21 21 23 24 25 27 28 29 29 28 27 26 25 24 24 23 23 23 23 24 25 25 26 27 27 27
11 8 7 6 7 7 6 6 5 5 4 3 3 3 5 7 8 10 11 11 12 13 13 14 14 14 14 13 14 14 15 15 15 15 15 14 14 14 14 13 12 13 15 16 17 17 17 18 19 20 20 21 21 20 19 20 21 22 23 24 25 26 28 29 30 32 33 33 31 29 28 27 26 25 24 24 23 23 23 24 24 25 25 25 26
11 9 8 8 8 8 7 6 5 4 4 3 4 5 6 7 9 11 12 12 13 14 14 15 15 15 15 15 15 15 15 16 16 17 17 16 15 15 15 15 15 14 14 15 16 17 17 18 19 20 20 22 23 24 23 24 24 24 25 27 29 30 31 32 33 34 35 35 33 31 30 28 27 26 26 25 24 24 24 24 23 23 23 24 24
11 10 10 10 9 8 6 5 5 5 5 6 8 9 10 10 9 9 10 11 12 13 14 14 15 15 15 15 15 15 16 16 17 17 18 18 18 16 16 16 16 16 15 15 15 16 16 17 18 19 19 20 22 23 24 24 24 25 25 26 28 30 31 32 33 34 34 34 33 32 30 28 27 27 27 27 26 26 25 25 24 23 23 22 23
Wind_Direction
196 199 200 201 201 197 198 201 200 196 193 193 196 194 193 190 184 181 180 178 176 177 180 179 177 178 180 178 169 162 159 158 159 162 165 170 174 174 177 183 183 180 184 188 189 188 187 191 192 195 203 202 201 203 203 207 202 189 182 181 187 190 191 235 358 5 328 298 341 346 343 336 314 285 238 114 105 95 80 81 74 72 73 65 56
195 197 198 199 199 196 195 196 197 195 193 196 199 194 194 196 192 188 186 184 181 181 183 183 183 182 182 179 171 166 165 160 160 162 166 174 179 180 183 188 186 182 182 187 191 194 195 199 201 205 212 207 204 204 204 206 200 189 183 184 193 205 210 221 267 313 301 297 316 338 350 356 316 258 283 297 309 51 51 49 45 46 59 55 49
193 195 195 197 199 196 193 194 194 192 192 195 199 197 197 199 198 197 194 190 187 187 186 185 186 186 186 184 177 177 174 164 160 165 171 178 182 185 187 191 193 188 187 191 195 200 202 203 205 210 214 211 209 208 207 200 192 190 187 184 194 207 206 193 197 250 290 293 308 341 348 349 356 349 335 315 305 306 -0 20 20 18 36 48 44
191 193 194 195 198 197 194 195 195 192 193 195 197 199 200 201 201 202 201 195 191 193 190 185 185 186 188 188 188 191 185 178 177 177 181 184 186 187 183 186 193 193 197 201 200 206 206 203 206 212 213 210 205 202 206 196 189 194 195 191 198 207 200 182 161 298 318 311 327 346 347 349 357 349 341 337 329 332 355 3 2 10 27 37 37
192 192 193 195 197 198 196 196 196 196 197 197 197 200 203 204 202 204 206 199 194 197 193 187 188 189 187 187 192 194 191 193 190 181 183 186 188 186 178 183 192 194 200 203 202 205 206 204 210 211 207 205 199 192 197 196 192 197 200 199 206 211 204 195 204 278 253 305 324 339 354 356 355 346 344 358 -0 357 358 349 345 2 25 35 36
195 194 194 195 197 198 198 197 198 198 200 200 201 203 205 206 205 207 211 204 197 198 196 192 193 192 191 190 190 191 192 196 192 183 182 180 181 184 181 188 195 197 197 200 203 204 201 203 209 211 209 208 204 197 196 195 194 196 198 201 205 205 202 206 228 245 230 246 291 341 356 354 355 352 350 350 352 4 3 351 357 13 29 37 36
195 195 195 196 197 198 198 198 199 199 200 202 203 206 208 207 208 212 215 209 200 199 200 198 197 195 196 195 194 194 195 195 187 180 180 175 179 185 187 192 197 199 198 196 200 201 200 201 204 207 209 209 205 200 199 198 198 198 198 202 204 199 200 213 231 230 207 209 229 324 344 349 352 352 353 351 351 356 353 349 357 11 21 28 37
192 193 195 196 197 198 199 200 200 200 200 202 204 208 209 208 210 217 218 211 204 202 203 203 201 199 198 198 199 198 198 197 187 180 182 182 184 187 189 196 200 202 202 200 200 198 198 204 206 208 208 209 206 201 202 203 203 206 207 208 208 206 211 226 237 223 200 203 225 264 312 329 329 338 350 355 356 352 351 355 351 350 12 21 45
191 193 195 196 198 199 200 201 200 200 201 203 206 208 209 209 214 220 217 208 206 206 204 205 205 203 202 200 199 200 199 202 198 189 188 189 188 184 182 193 200 202 203 203 205 202 200 208 211 210 211 212 212 206 205 208 210 216 218 214 215 216 222 235 238 226 221 228 241 254 275 286 294 330 351 353 359 358 1 5 358 351 12 15 2
191 194 197 198 199 200 201 201 200 201 203 204 207 209 209 211 216 220 212 205 208 209 204 205 205 205 206 202 200 203 203 207 214 204 196 194 191 185 183 191 194 201 208 205 205 205 201 206 207 207 213 216 218 215 212 215 218 223 223 218 220 227 233 238 237 231 238 251 264 273 276 262 249 277 338 339 356 -0 358 2 1 354 350 2 3
192 193 197 199 199 199 200 200 200 201 203 204 207 209 210 213 218 217 210 206 210 209 205 205 205 206 207 204 204 208 209 214 221 215 205 201 195 191 192 199 198 202 213 209 205 205 203 205 205 205 212 216 218 219 221 225 227 227 226 221 223 234 241 241 237 236 244 257 266 270 262 240 224 221 304 319 346 357 354 353 357 354 339 342 350
193 192 195 196 195 196 197 199 200 201 202 204 207 209 211 215 217 214 211 210 211 210 207 205 206 207 206 206 207 211 215 219 224 224 218 209 200 197 200 210 216 215 216 213 209 209 210 212 214 212 212 215 218 221 224 228 232 231 229 228 228 236 243 241 237 238 245 248 246 241 224 210 230 301 306 301 328 346 352 348 344 348 334 306 316
193 192 195 195 194 195 196 198 200 201 203 205 208 210 213 216 218 215 213 212 212 211 208 206 208 208 206 207 210 213 217 221 227 231 228 220 210 206 209 217 224 225 224 223 218 218 219 218 221 220 215 216 218 223 226 229 236 237 237 240 236 236 237 234 235 242 245 235 224 216 200 196 245 304 306 310 323 329 335 337 334 335 327 309 309
191 193 198 198 196 196 198 199 201 203 205 206 209 211 214 217 218 217 215 213 213 212 210 209 210 211 208 209 212 216 220 224 230 235 236 232 224 220 224 229 233 237 239 238 233 228 227 224 223 223 218 215 219 226 232 235 239 242 245 244 239 235 233 231 235 241 238 225 220 220 208 206 268 310 321 325 328 331 328 325 321 317 312 311 314
193 198 204 202 200 198 199 201 203 205 206 207 210 212 215 217 219 219 217 214 213 211 212 213 213 213 212 212 214 217 221 226 231 236 240 238 234 231 233 236 240 248 252 254 248 236 231 229 226 222 220 220 225 230 232 234 240 243 243 240 236 235 237 240 242 240 232 225 227 230 221 224 266 291 322 327 320 326 327 317 312 310 307 304 306
199 206 209 205 203 201 201 203 206 207 208 210 211 213 215 217 219 220 218 215 213 212 213 215 215 215 215 215 218 219 222 225 228 233 235 235 235 235 237 241 245 252 257 258 250 237 231 232 229 223 220 223 233 236 232 233 238 238 237 237 235 234 239 244 245 240 231 227 231 236 232 234 259 273 284 301 301 302 307 308 308 311 313 309 302
207 213 214 206 203 203 203 205 207 208 210 212 214 215 216 217 218 219 218 215 213 215 217 218 219 217 217 218 220 222 223 224 227 231 230 228 231 237 244 248 248 252 256 253 244 236 232 233 231 227 223 222 227 234 236 236 238 240 239 239 238 236 238 240 241 239 231 229 234 239 240 241 252 264 267 270 281 290 295 301 306 307 310 312 306
201 212 219 211 204 205 205 206 209 210 212 215 217 218 218 219 218 216 216 214 212 214 218 220 221 220 219 218 220 223 225 226 228 229 228 225 227 235 244 249 250 250 250 248 240 234 235 234 228 227 228 224 221 227 234 235 237 244 241 240 243 243 239 234 236 238 233 234 237 237 240 243 248 257 263 266 271 282 288 294 301 305 306 308 306
187 196 213 214 207 207 207 209 211 211 213 215 216 219 220 221 221 218 216 214 212 215 218 221 223 223 223 221 220 222 224 225 227 227 227 227 228 234 240 244 247 246 244 242 238 233 234 235 228 227 229 229 227 228 232 233 233 238 239 239 243 246 242 235 234 237 237 238 238 234 236 241 244 248 256 263 268 275 281 286 293 296 296 299 305
193 193 203 205 204 207 207 210 213 213 213 213 214 217 219 220 220 217 215 214 214 217 219 221 223 224 226 224 221 220 222 225 225 225 227 228 230 235 237 238 241 244 241 238 237 232 230 234 235 232 233 235 235 234 234 234 231 230 235 240 243 247 244 236 232 236 238 239 240 237 237 241 244 244 248 256 264 268 271 277 285 285 285 295 303
197 203 207 204 202 205 207 209 211 211 212 213 213 215 217 219 218 215 214 217 219 221 223 224 225 227 228 225 222 220 221 223 223 225 227 228 231 232 233 235 238 242 241 237 237 234 231 235 237 236 239 239 238 239 240 240 236 231 233 237 242 249 247 239 236 238 239 240 243 242 242 245 248 247 246 251 258 261 263 268 274 275 281 296 300
186 199 211 214 210 207 209 211 211 211 213 213 213 213 216 218 218 218 219 222 226 229 230 228 229 233 233 229 224 220 220 222 223 225 228 230 233 233 233 235 237 239 240 238 237 237 234 235 234 237 246 247 243 242 242 244 244 238 236 238 241 246 249 248 245 245 244 245 247 249 251 255 257 257 254 252 255 257 259 263 265 266 273 285 296
176 186 200 213 214 210 211 214 215 214 213 212 212 213 216 218 219 220 221 223 225 229 231 231 230 233 234 231 227 223 221 223 224 226 228 229 232 234 235 236 237 239 241 240 239 239 238 240 241 242 248 255 255 248 243 244 245 242 241 243 244 246 250 251 250 250 251 250 251 256 261 263 264 266 267 264 261 259 260 262 261 262 265 267 278
165 177 183 193 204 209 209 212 218 217 212 209 211 214 216 219 220 219 222 226 227 227 230 232 231 232 232 229 226 225 224 225 226 227 229 230 231 233 234 236 237 237 238 241 242 242 242 244 248 249 250 255 260 257 249 245 244 244 242 241 243 248 252 254 253 253 254 252 252 255 261 265 267 271 273 271 268 266 267 267 264 262 262 263 270
148 162 172 183 195 204 208 211 216 215 209 209 212 215 217 218 218 218 221 227 229 227 227 229 232 232 230 227 225 226 226 227 227 228 230 232 232 233 233 234 235 233 233 237 241 242 243 244 247 250 253 256 259 263 261 254 250 247 243 238 238 243 251 255 256 255 254 254 254 256 258 261 266 271 274 274 274 274 272 272 271 267 264 265 269
141 151 163 178 190 196 200 203 203 202 207 212 214 215 215 213 211 215 221 226 229 228 226 228 232 232 228 225 224 225 225 225 226 228 231 234 236 236 234 233 233 234 235 237 237 238 240 243 246 249 254 258 260 263 265 265 262 257 251 245 240 242 250 256 258 258 257 256 258 261 262 261 264 269 274 277 278 278 276 275 277 276 272 271 271
135 140 148 159 174 181 175 173 174 181 198 210 212 211 211 211 213 218 222 223 225 227 227 229 232 231 228 227 225 225 226 227 228 229 232 236 237 236 235 234 233 235 238 240 241 240 239 240 243 247 252 258 262 262 264 268 270 267 263 257 251 250 253 258 262 264 264 263 262 264 265 265 267 271 275 278 278 277 276 275 277 279 278 278 279
132 134 138 140 145 145 125 113 121 154 184 204 209 209 213 217 219 220 220 220 222 226 229 230 230 229 228 229 230 230 230 231 233 233 235 237 237 236 237 238 239 239 241 242 244 244 243 241 241 243 248 254 259 261 262 267 271 271 270 266 264 263 262 263 265 266 268 270 269 269 268 267 269 272 276 280 280 279 276 273 273 271 270 274 281
130 130 132 130 128 120 106 102 109 131 155 170 181 192 200 206 210 210 209 210 213 218 224 227 228 230 231 231 232 232 231 232 233 234 235 238 239 239 239 241 243 244 244 244 246 247 247 245 243 243 243 246 252 256 258 263 268 271 273 272 272 272 271 272 271 270 271 272 273 273 273 272 272 273 275 277 279 279 276 272 269 263 261 269 279
130 129 129 127 123 116 108 104 105 113 122 129 147 168 178 185 193 195 192 195 200 208 217 221 225 229 233 236 235 232 231 231 232 232 233 236 241 242 241 242 245 246 246 247 248 248 248 248 247 245 244 243 245 249 253 258 263 267 271 274 275 276 277 277 277 276 275 273 274 274 274 275 276 275 275 275 275 274 272 269 266 264 266 274 280
130 129 127 127 125 122 118 112 110 113 117 124 135 146 153 161 171 178 180 185 194 201 206 212 218 219 223 228 230 230 230 229 229 231 232 236 240 243 242 242 244 246 247 247 248 248 248 248 247 247 246 245 244 245 249 254 256 260 265 269 272 275 278 280 280 281 280 278 277 275 275 276 277 278 278 278 277 276 272 268 265 265 269 275 281
125 127 126 126 126 127 130 129 127 126 125 127 132 133 135 138 144 155 166 172 182 190 192 203 212 209 208 211 216 223 225 224 224 227 231 236 239 242 246 247 247 248 248 247 246 246 247 247 247 247 246 246 245 245 249 253 255 256 260 265 268 270 272 274 276 277 279 281 279 277 276 277 277 280 281 281 282 281 279 276 272 270 270 272 276
122 123 121 119 119 121 126 131 136 141 140 140 143 143 141 139 139 141 141 145 156 164 172 185 194 193 190 191 197 207 213 217 221 224 229 235 239 242 246 249 250 248 246 245 242 241 243 246 249 248 245 245 246 247 250 253 255 256 259 263 266 268 269 269 269 269 269 270 271 272 271 271 274 279 282 284 286 286 286 284 282 280 279 278 278
127 123 116 113 114 114 113 117 126 135 139 141 143 142 143 146 148 146 144 145 147 153 162 169 171 169 168 176 186 193 200 209 217 221 227 232 236 238 242 246 250 247 244 241 238 236 237 240 245 248 246 244 246 250 254 256 258 260 261 262 263 264 265 266 266 266 265 262 261 262 263 261 261 264 269 276 281 284 286 287 286 286 285 284 283
133 127 119 114 113 111 109 116 126 130 131 133 130 128 133 142 149 151 153 155 157 161 166 170 171 172 172 180 190 195 202 212 220 226 232 236 238 237 237 242 250 248 242 239 238 237 235 235 238 243 245 245 247 250 254 258 261 263 264 264 262 260 261 263 264 265 266 266 265 265 266 264 261 260 260 263 269 274 279 282 282 283 284 284 284
132 132 129 124 119 114 113 119 127 128 127 126 122 118 120 126 135 144 148 153 158 161 162 163 169 173 174 180 189 198 204 211 221 232 237 240 245 246 241 240 248 250 244 238 236 238 238 237 238 241 243 243 242 243 246 250 256 261 263 265 264 261 260 261 263 264 265 267 270 272 274 275 274 273 270 269 269 272 275 278 278 279 280 281 282
132 132 134 132 125 118 117 119 123 126 126 125 124 125 124 120 122 130 138 146 153 154 151 151 156 160 165 172 182 197 207 211 220 233 242 245 249 253 250 247 250 255 252 245 240 240 240 240 240 242 243 242 240 241 242 243 246 252 259 262 262 262 262 261 261 261 261 264 268 272 275 277 278 278 279 278 277 277 277 277 277 277 277 277 278
139 133 132 135 134 129 127 127 125 123 124 128 132 136 137 132 126 126 132 139 143 144 145 150 155 156 163 168 172 188 206 212 218 229 245 255 258 260 258 253 253 256 257 252 248 246 247 246 244 243 243 243 243 242 243 244 244 246 254 262 262 260 260 260 260 260 261 265 269 272 275 276 277 278 279 278 277 277 276 276 276 277 277 276 277
143 135 131 135 140 141 140 140 135 128 127 136 145 148 147 145 141 139 140 139 138 139 140 146 155 159 163 165 161 163 172 184 195 205 223 243 252 256 256 254 253 255 256 253 250 251 253 256 257 254 251 251 250 248 247 248 249 249 254 264 267 263 262 262 264 265 267 269 272 274 276 277 278 279 279 277 276 275 274 274 275 276 276 276 277
146 143 140 140 144 148 150 150 147 142 141 148 161 169 172 173 171 166 163 157 150 148 148 152 163 172 176 178 177 177 176 177 177 179 193 210 223 237 247 250 252 254 254 251 252 254 254 258 263 264 261 259 257 255 254 254 254 254 257 264 269 268 267 268 269 271 272 272 274 275 277 277 278 278 278 277 277 275 275 276 275 275 275 276 278
151 151 150 149 153 157 160 161 161 161 166 175 187 200 210 213 214 216 216 207 192 178 177 183 189 194 198 202 204 212 215 213 207 202 206 215 220 226 234 240 245 249 250 249 252 256 257 256 260 264 265 266 268 269 266 263 261 259 261 268 272 271 270 272 272 273 274 274 275 276 277 278 278 279 278 278 278 277 277 276 276 277 278 278 278
156 157 158 160 162 167 174 179 178 179 186 195 206 220 229 227 224 226 228 227 224 216 210 208 208 210 215 217 219 223 227 229 229 222 219 224 229 230 231 232 235 241 246 247 250 257 261 258 252 252 257 262 272 278 275 270 267 260 258 265 273 272 271 273 275 276 278 278 278 278 278 279 279 280 280 280 280 279 277 276 276 277 278 278 277
164 164 169 173 176 182 191 196 197 203 211 215 219 223 222 220 221 224 226 226 224 224 223 223 223 225 226 225 225 227 229 231 232 227 222 223 226 230 234 236 237 237 237 236 239 246 253 253 239 225 215 190 188 219 241 248 252 252 252 258 267 271 272 276 281 285 286 284 283 281 280 279 278 278 278 279 280 280 280 279 278 276 276 277 276
176 177 182 190 198 202 204 204 205 212 219 225 228 223 216 215 218 222 228 231 227 223 223 229 233 234 233 232 232 233 234 236 237 235 230 226 224 226 231 235 237 239 236 233 233 237 244 247 237 221 212 208 208 212 214 213 216 228 243 255 269 278 279 282 289 294 295 292 289 287 285 283 282 281 279 279 279 281 283 284 283 280 278 278 278
185 188 194 202 210 212 212 210 210 211 213 217 222 222 221 221 221 224 231 236 235 230 225 226 232 238 242 246 248 250 250 250 250 250 246 242 236 232 231 233 236 238 238 239 240 241 244 248 246 237 227 222 223 224 224 225 231 240 251 264 277 286 288 289 294 298 301 301 297 293 292 291 290 288 286 283 282 282 284 286 287 285 283 281 282
192 197 203 206 209 216 220 217 212 205 204 207 214 220 224 223 224 227 232 237 243 245 241 237 239 245 252 257 262 265 266 266 268 268 265 262 258 252 247 247 248 249 249 250 250 252 255 255 253 250 246 241 239 237 235 239 244 250 259 269 277 283 287 291 294 298 303 306 304 299 296 295 295 294 293 291 288 286 284 283 284 285 284 284 285
195 201 205 211 219 221 219 218 212 203 198 200 205 212 218 221 227 234 239 244 249 253 256 256 254 256 260 263 268 272 274 275 278 278 275 273 272 269 266 265 265 264 264 264 263 263 266 266 264 261 258 256 253 250 249 251 253 256 261 267 272 277 280 286 291 295 300 304 305 302 298 296 296 296 296 296 295 292 287 283 281 281 283 286 288
196 199 205 220 233 228 219 214 212 207 204 203 206 213 221 227 236 243 249 256 260 262 265 268 267 267 268 268 271 275 278 281 283 283 283 282 281 280 279 278 279 280 279 278 276 275 276 278 277 276 273 270 266 264 264 264 264 265 267 268 271 274 276 281 286 290 294 299 301 299 296 295 294 295 295 295 295 293 290 287 284 282 282 284 284
200 203 213 224 229 229 225 217 209 210 217 226 233 237 240 246 252 255 258 263 268 270 272 273 274 275 276 276 277 278 280 282 284 285 286 287 289 290 290 289 288 289 289 289 288 287 286 287 286 287 286 283 278 273 270 269 269 272 274 276 276 277 279 281 285 288 291 294 295 294 292 292 292 293 294 294 294 293 291 290 288 288 287 285 282
207 214 222 227 228 225 220 215 215 222 237 266 287 294 292 285 276 271 269 270 270 272 275 276 277 279 281 281 281 280 280 281 282 282 283 283 285 289 292 292 291 289 289 290 292 293 293 291 290 289 288 287 286 283 279 276 273 272 274 277 279 280 280 281 283 285 288 289 290 289 288 289 292 293 294 294 295 294 293 292 290 290 291 290 288
213 217 220 224 225 223 222 229 242 252 271 292 303 307 308 304 294 282 277 274 274 275 276 278 281 283 284 285 285 284 284 284 282 283 284 283 282 281 283 287 289 288 286 285 285 288 291 292 292 291 288 286 287 288 287 285 283 279 277 275 275 275 276 277 278 280 281 283 284 285 285 288 292 293 293 293 295 295 295 293 291 290 290 291 291
Height
1556 1558 1559 1561 1563 1565 1567 1568 1570 1571 1573 1575 1576 1578 1579 1580 1581 1582 1584 1585 1586 1587 1588 1589 1590 1591 1592 1593 1594 1595 1596 1597 1598 1599 1599 1600 1600 1601 1602 1603 1604 1605 1606 1606 1607 1607 1608 1608 1609 1609 1609 1610 1610 1611 1611 1612 1612 1613 1613 1613 1613 1613 1613 1612 1612 1612 1612 1612 1612 1612 1612 1612 1612 1612 1611 1611 1611 1611 1611 1611 1611 1610 1610 1610 1610
1555 1557 1558 1560 1562 1564 1566 1568 1569 1571 1572 1574 1576 1577 1579 1580 1581 1582 1584 1585 1586 1587 1588 1589 1590 1591 1592 1593 1594 1595 1596 1597 1598 1598 1599 1600 1601 1601 1602 1603 1603 1605 1606 1606 1607 1607 1608 1608 1608 1609 1609 1610 1610 1611 1612 1612 1612 1613 1613 1613 1613 1613 1613 1613 1613 1613 1613 1613 1613 1613 1613 1613 1612 1612 1612 1612 1612 1612 1611 1611 1611 1611 1610 1610 1610
1554 1555 1557 1559 1561 1563 1565 1567 1568 1570 1572 1574 1576 1577 1579 1580 1581 1583 1583 1584 1586 1587 1588 1589 1590 1591 1592 1593 1594 1595 1596 1597 1598 1599 1599 1600 1601 1601 1602 1603 1603 1604 1605 1606 1607 1607 1608 1608 1608 1609 1609 1610 1610 1611 1611 1612 1613 1613 1613 1614 1614 1614 1614 1614 1614 1614 1614 1614 1614 1614 1614 1613 1613 1613 1613 1613 1613 1612 1612 1612 1612 1611 1611 1611 1611
1552 1553 1555 1558 1560 1562 1564 1565 1567 1569 1571 1573 1575 1577 1578 1580 1581 1582 1583 1584 1586 1587 1588 1589 1590 1592 1593 1594 1595 1596 1597 1597 1598 1599 1599 1600 1601 1601 1602 1603 1603 1604 1605 1606 1607 1607 1608 1608 1608 1609 1609 1609 1610 1611 1611 1612 1613 1613 1614 1614 1614 1614 1614 1614 1614 1614 1614 1614 1615 1615 1614 1614 1614 1614 1614 1613 1613 1613 1613 1613 1613 1612 1612 1611 1611
1549 1551 1554 1556 1558 1560 1562 1564 1566 1568 1570 1571 1573 1575 1577 1579 1581 1582 1584 1585 1586 1587 1588 1589 1591 1592 1593 1594 1595 1596 1596 1597 1598 1598 1599 1600 1600 1601 1602 1603 1603 1604 1605 1606 1607 1607 1608 1608 1608 1609 1609 1609 1610 1611 1611 1612 1612 1613 1614 1614 1615 1614 1614 1615 1615 1615 1615 1615 1615 1615 1615 1615 1615 1615 1614 1614 1614 1614 1614 1613 1613 1613 1612 1612 1612
1548 1549 1552 1554 1556 1559 1561 1563 1565 1567 1568 1570 1572 1574 1576 1578 1580 1582 1583 1584 1586 1587 1588 1589 1590 1591 1592 1593 1594 1595 1595 1596 1597 1598 1599 1600 1600 1601 1602 1603 1604 1604 1605 1606 1607 1607 1608 1608 1608 1609 1609 1609 1610 1610 1611 1612 1612 1613 1614 1614 1615 1615 1615 1615 1615 1615 1616 1616 1616 1616 1616 1616 1616 1616 1616 1615 1614 1614 1614 1614 1613 1613 1613 1613 1612
1546 1548 1551 1553 1555 1557 1559 1562 1563 1565 1567 1570 1572 1574 1575 1578 1579 1581 1583 1584 1586 1587 1588 1589 1590 1591 1592 1593 1594 1595 1595 1596 1598 1599 1600 1600 1601 1601 1602 1603 1604 1604 1605 1606 1606 1607 1608 1608 1609 1609 1609 1609 1610 1610 1611 1612 1612 1613 1614 1614 1615 1615 1615 1615 1616 1616 1616 1616 1616 1617 1617 1617 1617 1617 1617 1616 1615 1615 1614 1614 1614 1614 1613 1613 1613
1544 1547 1549 1551 1553 1555 1557 1560 1562 1564 1567 1569 1572 1573 1575 1577 1579 1581 1582 1584 1585 1587 1588 1589 1590 1591 1592 1593 1594 1595 1596 1597 1598 1599 1600 1601 1601 1602 1602 1603 1604 1604 1605 1606 1606 1607 1607 1608 1608 1609 1609 1610 1610 1611 1611 1612 1612 1613 1614 1614 1615 1615 1615 1616 1616 1616 1616 1616 1617 1617 1617 1617 1617 1617 1617 1617 1616 1616 1615 1614 1614 1614 1614 1613 1613
1543 1544 1547 1549 1552 1554 1556 1559 1562 1564 1566 1569 1571 1573 1575 1577 1578 1580 1582 1583 1585 1586 1587 1588 1589 1590 1592 1593 1594 1595 1596 1598 1599 1599 1600 1601 1601 1602 1603 1603 1604 1604 1605 1605 1606 1607 1607 1608 1608 1609 1609 1610 1610 1611 1611 1612 1612 1613 1614 1615 1615 1615 1615 1616 1616 1616 1616 1617 1617 1617 1617 1617 1618 1618 1618 1617 1617 1616 1616 1615 1615 1614 1614 1614 1613
1541 1543 1545 1548 1550 1553 1556 1559 1561 1564 1566 1568 1570 1572 1574 1576 1578 1579 1581 1582 1584 1586 1587 1588 1589 1590 1591 1592 1593 1595 1596 1597 1598 1599 1600 1601 1601 1602 1603 1603 1604 1604 1605 1605 1606 1606 1607 1607 1608 1608 1609 1609 1610 1610 1611 1612 1612 1613 1614 1614 1615 1615 1615 1615 1616 1616 1616 1617 1617 1617 1617 1617 1618 1618 1618 1617 1617 1616 1616 1616 1615 1615 1615 1614 1614
1540 1543 1544 1547 1550 1553 1556 1558 1561 1563 1566 1568 1570 1572 1574 1575 1577 1578 1580 1582 1583 1585 1586 1587 1589 1590 1591 1592 1593 1594 1596 1597 1598 1599 1600 1600 1601 1602 1603 1603 1604 1604 1605 1605 1606 1606 1606 1607 1607 1608 1609 1609 1610 1610 1611 1612 1612 1613 1613 1614 1614 1615 1615 1615 1616 1616 1616 1617 1617 1617 1617 1618 1618 1618 1617 1617 1617 1617 1616 1616 1616 1615 1615 1615 1614
1539 1542 1545 1547 1550 1553 1555 1557 1560 1562 1565 1567 1569 1571 1573 1574 1576 1577 1579 1581 1582 1584 1586 1587 1588 1589 1590 1592 1593 1594 1595 1596 1597 1598 1599 1600 1601 1602 1602 1603 1603 1604 1605 1605 1605 1606 1606 1607 1607 1608 1608 1609 1610 1610 1611 1611 1612 1613 1613 1613 1614 1614 1615 1615 1615 1616 1616 1617 1617 1617 1617 1618 1618 1618 1617 1617 1617 1617 1616 1616 1616 1615 1615 1615 1615
1539 1542 1545 1547 1549 1551 1554 1556 1559 1561 1563 1565 1567 1569 1571 1573 1575 1576 1577 1580 1581 1583 1585 1586 1588 1589 1590 1592 1593 1594 1595 1596 1597 1598 1599 1600 1601 1601 1602 1603 1603 1604 1604 1605 1605 1606 1606 1606 1607 1607 1608 1609 1609 1610 1610 1611 1612 1612 1612 1613 1613 1614 1614 1615 1615 1616 1616 1617 1617 1617 1618 1618 1618 1618 1617 1617 1617 1617 1617 1616 1616 1616 1615 1615 1615
1539 1542 1545 1547 1549 1550 1553 1555 1557 1560 1562 1564 1566 1568 1570 1572 1573 1575 1576 1579 1580 1582 1584 1586 1588 1589 1590 1592 1593 1594 1595 1596 1597 1598 1599 1600 1600 1601 1602 1602 1603 1604 1604 1605 1605 1606 1606 1606 1607 1607 1608 1608 1609 1610 1610 1611 1611 1611 1612 1612 1613 1614 1614 1614 1615 1615 1616 1617 1617 1617 1618 1618 1618 1618 1618 1618 1617 1617 1617 1617 1616 1616 1616 1615 1615
1540 1543 1545 1548 1549 1550 1552 1554 1556 1558 1561 1563 1564 1566 1568 1570 1572 1574 1576 1578 1580 1582 1583 1585 1587 1589 1590 1591 1592 1593 1594 1595 1596 1597 1598 1599 1600 1601 1602 1602 1603 1604 1604 1605 1605 1605 1606 1606 1606 1607 1607 1608 1609 1609 1610 1610 1611 1611 1611 1612 1612 1613 1614 1614 1615 1615 1616 1616 1617 1617 1617 1617 1618 1618 1618 1618 1617 1617 1617 1617 1617 1616 1616 1616 1615
1540 1543 1545 1547 1549 1550 1551 1553 1555 1557 1559 1561 1563 1565 1567 1569 1571 1573 1575 1577 1578 1580 1582 1584 1586 1587 1589 1590 1591 1592 1593 1595 1596 1597 1598 1599 1600 1601 1601 1602 1603 1603 1604 1604 1605 1605 1605 1606 1606 1607 1607 1607 1608 1609 1609 1610 1610 1610 1611 1611 1612 1612 1613 1613 1614 1614 1615 1616 1616 1616 1617 1617 1618 1618 1618 1618 1617 1617 1617 1617 1617 1617 1616 1616 1615
1542 1543 1544 1545 1547 1549 1550 1552 1554 1556 1558 1559 1561 1563 1565 1567 1570 1572 1574 1575 1577 1579 1581 1582 1584 1585 1587 1588 1589 1591 1592 1593 1595 1596 1598 1599 1599 1600 1601 1602 1602 1603 1603 1604 1604 1605 1605 1605 1606 1606 1607 1607 1607 1608 1609 1609 1610 1610 1610 1611 1611 1612 1612 1613 1613 1614 1614 1615 1615 1616 1616 1617 1617 1617 1617 1617 1617 1617 1617 1617 1617 1617 1617 1616 1615
1542 1542 1543 1544 1545 1547 1549 1551 1553 1554 1556 1558 1560 1562 1564 1566 1568 1570 1572 1573 1575 1577 1578 1580 1581 1582 1584 1586 1587 1589 1590 1592 1594 1595 1597 1598 1599 1599 1600 1601 1601 1602 1602 1603 1604 1604 1605 1605 1605 1606 1606 1606 1607 1607 1608 1608 1609 1609 1609 1610 1610 1611 1611 1612 1612 1613 1614 1614 1614 1615 1616 1616 1616 1617 1617 1617 1617 1617 1617 1617 1617 1617 1617 1616 1616
1538 1540 1541 1542 1543 1546 1548 1549 1551 1552 1555 1557 1559 1561 1563 1564 1566 1568 1570 1571 1573 1575 1576 1578 1579 1580 1582 1584 1586 1588 1589 1591 1592 1594 1595 1596 1597 1598 1599 1599 1600 1601 1601 1602 1603 1603 1603 1604 1604 1605 1605 1606 1606 1606 1607 1607 1608 1609 1609 1609 1610 1610 1611 1611 1611 1612 1613 1613 1613 1614 1615 1615 1616 1616 1616 1616 1617 1617 1617 1617 1617 1616 1616 1616 1616
1536 1538 1539 1540 1543 1546 1547 1548 1550 1552 1554 1556 1558 1560 1561 1563 1565 1566 1568 1569 1571 1572 1573 1575 1577 1579 1582 1583 1585 1586 1587 1588 1589 1591 1592 1593 1594 1596 1597 1598 1599 1600 1600 1601 1601 1602 1602 1603 1603 1604 1604 1605 1605 1605 1606 1606 1607 1608 1608 1608 1609 1609 1610 1610 1611 1611 1612 1612 1612 1613 1614 1614 1614 1615 1615 1615 1616 1616 1616 1616 1616 1616 1616 1616 1615
1535 1537 1538 1541 1543 1545 1546 1547 1549 1551 1553 1555 1557 1558 1559 1562 1564 1566 1568 1569 1570 1571 1572 1575 1578 1579 1581 1582 1583 1584 1585 1586 1587 1588 1589 1590 1592 1594 1595 1597 1598 1599 1599 1600 1600 1601 1601 1602 1602 1603 1603 1604 1604 1604 1605 1605 1606 1607 1607 1608 1608 1608 1609 1609 1610 1610 1611 1611 1612 1612 1613 1613 1613 1614 1614 1614 1615 1615 1615 1615 1616 1615 1615 1615 1615
1533 1535 1537 1539 1542 1544 1545 1546 1548 1549 1551 1554 1555 1556 1558 1560 1562 1565 1568 1569 1570 1571 1574 1577 1578 1579 1580 1580 1582 1582 1583 1585 1586 1587 1588 1589 1591 1592 1594 1595 1596 1597 1598 1599 1599 1600 1601 1601 1601 1602 1603 1603 1604 1604 1604 1604 1605 1606 1606 1607 1607 1608 1608 1609 1609 1610 1610 1611 1611 1611 1612 1612 1612 1613 1613 1613 1613 1614 1614 1614 1614 1614 1614 1615 1614
1532 1534 1536 1538 1540 1542 1544 1546 1547 1548 1550 1551 1552 1554 1557 1559 1560 1562 1564 1566 1568 1570 1574 1576 1577 1577 1578 1578 1580 1581 1582 1583 1584 1586 1587 1588 1589 1590 1592 1593 1594 1596 1597 1598 1598 1599 1600 1600 1601 1601 1602 1602 1603 1603 1603 1604 1604 1605 1605 1605 1606 1607 1607 1608 1609 1609 1610 1610 1610 1610 1611 1611 1612 1612 1612 1612 1613 1613 1613 1613 1613 1613 1613 1613 1613
1531 1533 1535 1537 1539 1541 1542 1544 1546 1548 1548 1548 1549 1553 1556 1557 1557 1560 1563 1565 1567 1569 1572 1575 1575 1575 1576 1576 1577 1578 1580 1581 1583 1584 1585 1586 1588 1589 1590 1591 1592 1594 1595 1596 1597 1598 1598 1599 1599 1600 1601 1601 1602 1602 1602 1603 1603 1604 1604 1604 1605 1606 1606 1607 1608 1608 1609 1609 1609 1610 1610 1611 1611 1611 1611 1611 1612 1612 1612 1611 1612 1612 1612 1612 1612
1531 1532 1534 1536 1538 1539 1540 1542 1545 1548 1548 1547 1548 1551 1554 1555 1556 1559 1563 1566 1567 1568 1570 1572 1574 1574 1574 1574 1575 1577 1578 1579 1581 1582 1583 1585 1586 1587 1589 1590 1591 1592 1593 1594 1595 1596 1597 1598 1598 1599 1599 1600 1601 1601 1601 1601 1602 1603 1603 1603 1604 1604 1605 1606 1606 1607 1608 1608 1608 1609 1609 1610 1610 1610 1610 1610 1610 1611 1611 1610 1610 1610 1610 1610 1610
1531 1532 1534 1536 1537 1539 1540 1540 1543 1547 1547 1547 1548 1550 1553 1555 1557 1560 1564 1565 1565 1567 1568 1569 1571 1572 1572 1573 1574 1575 1576 1578 1579 1581 1582 1583 1585 1586 1587 1588 1589 1590 1591 1593 1594 1594 1595 1596 1597 1597 1598 1598 1599 1600 1600 1600 1601 1601 1602 1602 1603 1603 1604 1604 1605 1605 1606 1607 1607 1607 1608 1608 1609 1609 1609 1609 1610 1609 1609 1609 1609 1609 1609 1609 1609
1532 1533 1535 1537 1537 1538 1539 1539 1542 1546 1546 1546 1547 1549 1551 1553 1555 1558 1561 1561 1563 1564 1565 1567 1568 1570 1570 1571 1572 1573 1575 1576 1578 1579 1581 1582 1583 1584 1585 1586 1588 1588 1590 1591 1592 1593 1594 1594 1595 1596 1597 1597 1598 1598 1599 1599 1600 1600 1601 1601 1601 1602 1602 1602 1603 1604 1604 1605 1605 1606 1606 1607 1607 1607 1608 1608 1608 1608 1608 1608 1608 1608 1608 1608 1607
1533 1535 1536 1538 1538 1539 1539 1540 1542 1544 1544 1544 1546 1547 1549 1552 1553 1554 1556 1558 1560 1561 1563 1564 1565 1567 1568 1569 1571 1572 1574 1575 1577 1578 1579 1580 1581 1582 1583 1585 1586 1586 1588 1589 1590 1591 1592 1592 1593 1594 1595 1596 1596 1597 1597 1598 1598 1599 1599 1599 1600 1600 1600 1601 1601 1602 1603 1603 1603 1604 1604 1604 1605 1605 1606 1606 1607 1607 1607 1607 1607 1607 1606 1606 1606
1536 1537 1538 1539 1540 1540 1540 1541 1542 1544 1544 1544 1546 1547 1548 1550 1552 1553 1554 1556 1558 1560 1561 1562 1563 1565 1566 1568 1569 1571 1572 1574 1575 1576 1578 1579 1579 1580 1581 1583 1584 1585 1586 1587 1588 1589 1590 1590 1591 1592 1592 1594 1594 1595 1596 1596 1597 1597 1598 1598 1598 1599 1599 1599 1600 1600 1601 1601 1602 1602 1602 1603 1603 1603 1603 1604 1604 1604 1605 1604 1605 1605 1605 1605 1604
1538 1538 1539 1540 1541 1541 1542 1543 1543 1544 1545 1545 1546 1547 1547 1549 1551 1552 1553 1554 1556 1559 1560 1559 1560 1562 1564 1567 1569 1570 1571 1572 1573 1574 1576 1576 1577 1579 1580 1581 1582 1583 1584 1585 1586 1586 1587 1588 1589 1589 1590 1591 1592 1593 1594 1595 1596 1596 1596 1597 1597 1597 1598 1598 1598 1598 1599 1599 1600 1600 1600 1601 1601 1601 1601 1602 1602 1602 1602 1602 1602 1603 1603 1603 1603
1539 1540 1541 1541 1542 1543 1543 1544 1545 1545 1545 1545 1546 1546 1547 1549 1550 1551 1552 1553 1555 1557 1558 1558 1559 1560 1563 1565 1568 1570 1570 1570 1571 1572 1573 1574 1575 1576 1577 1579 1580 1581 1582 1582 1583 1584 1585 1586 1586 1587 1588 1588 1589 1590 1592 1593 1594 1594 1595 1595 1595 1596 1596 1596 1596 1596 1596 1597 1597 1597 1598 1598 1599 1599 1599 1600 1600 1600 1600 1600 1600 1601 1601 1601 1601
1541 1542 1542 1542 1542 1543 1544 1545 1546 1547 1547 1547 1547 1547 1548 1549 1550 1551 1552 1553 1555 1556 1558 1560 1561 1562 1563 1564 1566 1569 1569 1568 1569 1570 1571 1572 1572 1573 1575 1576 1577 1578 1579 1580 1580 1581 1582 1583 1584 1585 1586 1586 1587 1588 1589 1591 1592 1592 1593 1593 1593 1594 1594 1594 1594 1594 1594 1594 1594 1595 1595 1596 1596 1597 1597 1597 1597 1598 1598 1598 1598 1598 1599 1599 1599
1543 1543 1543 1543 1543 1544 1544 1545 1546 1547 1548 1549 1549 1550 1549 1549 1551 1553 1553 1554 1556 1557 1559 1562 1562 1562 1562 1563 1565 1567 1567 1567 1567 1568 1569 1570 1570 1571 1572 1573 1574 1575 1576 1577 1578 1578 1579 1580 1581 1582 1583 1584 1585 1586 1587 1589 1589 1590 1591 1591 1591 1592 1592 1592 1592 1592 1592 1592 1592 1592 1593 1593 1594 1594 1595 1595 1595 1595 1595 1595 1595 1596 1596 1596 1596
1544 1545 1545 1545 1545 1546 1546 1547 1547 1548 1549 1550 1551 1551 1551 1552 1553 1554 1555 1556 1558 1560 1561 1562 1561 1561 1561 1563 1564 1565 1566 1566 1567 1567 1568 1568 1569 1569 1569 1570 1572 1573 1574 1574 1575 1576 1577 1578 1578 1579 1580 1581 1583 1584 1585 1586 1587 1588 1589 1589 1589 1589 1590 1590 1590 1590 1590 1590 1590 1590 1590 1590 1591 1591 1592 1592 1592 1593 1593 1593 1592 1592 1593 1593 1593
1546 1546 1546 1547 1548 1548 1549 1549 1549 1550 1551 1551 1552 1552 1553 1554 1555 1556 1557 1558 1560 1560 1560 1560 1560 1560 1560 1561 1562 1563 1564 1565 1566 1566 1566 1567 1567 1567 1566 1567 1570 1571 1572 1572 1573 1573 1574 1575 1576 1576 1577 1578 1579 1580 1582 1583 1585 1586 1587 1587 1587 1587 1587 1587 1587 1588 1588 1588 1588 1588 1588 1588 1588 1589 1589 1589 1589 1590 1590 1589 1589 1589 1589 1589 1590
1546 1547 1548 1549 1549 1550 1550 1550 1551 1552 1552 1553 1553 1553 1554 1555 1556 1557 1558 1558 1559 1559 1559 1559 1559 1559 1560 1560 1561 1562 1563 1563 1564 1564 1565 1565 1565 1565 1565 1565 1568 1570 1570 1571 1572 1572 1573 1573 1574 1574 1575 1576 1577 1577 1578 1579 1581 1583 1584 1585 1585 1585 1585 1585 1585 1585 1586 1586 1586 1586 1586 1586 1586 1586 1587 1587 1587 1587 1587 1586 1586 1585 1586 1586 1586
1546 1547 1548 1550 1551 1551 1552 1552 1553 1554 1554 1554 1555 1555 1555 1556 1557 1557 1558 1559 1559 1559 1559 1559 1559 1559 1560 1560 1561 1561 1562 1562 1563 1563 1564 1564 1564 1564 1563 1564 1566 1568 1568 1569 1571 1572 1572 1572 1572 1571 1572 1573 1574 1575 1575 1576 1578 1580 1581 1582 1583 1583 1583 1583 1583 1583 1583 1583 1584 1584 1584 1584 1583 1583 1584 1585 1585 1585 1584 1583 1582 1582 1582 1581 1582
1546 1547 1548 1550 1552 1552 1553 1554 1554 1555 1556 1556 1556 1556 1557 1557 1557 1557 1558 1559 1559 1559 1559 1559 1559 1560 1560 1560 1561 1561 1561 1562 1563 1563 1564 1564 1564 1564 1563 1563 1565 1567 1567 1568 1569 1569 1570 1569 1569 1568 1568 1569 1571 1572 1573 1574 1575 1576 1578 1580 1581 1581 1580 1580 1580 1580 1580 1580 1580 1581 1581 1580 1580 1580 1580 1581 1581 1581 1580 1579 1579 1578 1578 1577 1577
1546 1547 1548 1551 1553 1554 1555 1555 1556 1556 1557 1557 1558 1558 1558 1558 1558 1558 1558 1558 1559 1559 1559 1560 1560 1560 1560 1560 1560 1561 1561 1562 1562 1563 1563 1564 1564 1563 1563 1564 1565 1565 1565 1566 1566 1567 1568 1567 1566 1565 1566 1567 1568 1569 1570 1572 1572 1573 1574 1577 1579 1579 1578 1578 1577 1577 1577 1577 1577 1577 1577 1576 1576 1576 1576 1576 1577 1577 1576 1575 1575 1574 1573 1572 1573
1546 1547 1549 1551 1553 1554 1555 1556 1557 1557 1558 1558 1559 1559 1559 1559 1559 1558 1558 1558 1558 1558 1559 1559 1560 1560 1560 1560 1560 1561 1561 1562 1562 1563 1563 1563 1563 1563 1563 1563 1563 1563 1563 1564 1564 1564 1565 1565 1564 1564 1564 1565 1565 1566 1567 1569 1570 1570 1571 1573 1576 1577 1575 1575 1574 1573 1573 1573 1573 1573 1573 1573 1572 1572 1572 1572 1572 1572 1571 1570 1570 1569 1568 1568 1569
1546 1548 1549 1551 1553 1554 1555 1556 1557 1558 1558 1559 1559 1559 1559 1559 1559 1558 1558 1558 1558 1558 1558 1559 1559 1559 1560 1560 1560 1561 1561 1561 1562 1562 1563 1563 1563 1563 1563 1563 1562 1562 1562 1562 1561 1561 1562 1562 1562 1562 1562 1563 1563 1564 1565 1566 1567 1567 1568 1571 1574 1575 1573 1572 1571 1570 1569 1569 1569 1569 1569 1569 1569 1568 1568 1568 1568 1568 1567 1566 1566 1566 1565 1565 1565
1547 1548 1550 1551 1553 1554 1555 1555 1556 1557 1558 1558 1559 1559 1559 1559 1558 1558 1558 1558 1558 1558 1558 1559 1559 1559 1559 1559 1560 1560 1560 1561 1562 1562 1562 1563 1562 1562 1562 1562 1562 1562 1562 1561 1561 1561 1561 1561 1561 1561 1561 1562 1562 1563 1564 1564 1564 1564 1566 1569 1572 1572 1571 1569 1568 1567 1566 1565 1565 1564 1564 1564 1564 1564 1564 1564 1564 1564 1564 1563 1562 1562 1562 1562 1561
1547 1549 1550 1551 1552 1554 1554 1555 1555 1556 1556 1557 1558 1558 1558 1558 1558 1558 1558 1558 1558 1558 1558 1558 1558 1558 1559 1559 1559 1559 1560 1560 1560 1561 1561 1562 1561 1561 1561 1561 1561 1561 1561 1561 1561 1560 1560 1560 1561 1561 1561 1561 1562 1562 1563 1563 1563 1563 1565 1568 1570 1570 1568 1567 1565 1564 1563 1562 1561 1560 1560 1560 1560 1560 1560 1560 1560 1560 1560 1559 1559 1559 1559 1558 1558
1547 1549 1550 1551 1552 1553 1553 1554 1555 1555 1556 1556 1556 1557 1557 1557 1557 1557 1557 1557 1557 1557 1558 1558 1558 1558 1558 1558 1558 1559 1559 1559 1559 1560 1560 1560 1560 1560 1560 1560 1560 1560 1560 1560 1560 1560 1560 1560 1560 1560 1560 1560 1561 1562 1562 1562 1562 1563 1564 1566 1567 1567 1565 1564 1563 1561 1560 1559 1558 1557 1557 1556 1556 1556 1556 1556 1556 1556 1556 1556 1556 1556 1555 1555 1554
1547 1548 1549 1550 1551 1552 1552 1553 1554 1555 1555 1555 1555 1555 1555 1556 1556 1556 1556 1556 1556 1557 1557 1557 1557 1557 1558 1558 1558 1558 1558 1558 1558 1558 1558 1559 1559 1559 1559 1558 1558 1558 1558 1558 1558 1558 1558 1558 1558 1558 1559 1560 1560 1561 1561 1561 1561 1562 1564 1565 1565 1564 1562 1561 1559 1558 1557 1556 1555 1555 1554 1553 1553 1552 1552 1552 1552 1553 1553 1552 1552 1552 1551 1551 1551
1546 1547 1549 1549 1550 1550 1551 1552 1553 1554 1555 1555 1555 1554 1554 1554 1555 1555 1555 1555 1555 1556 1556 1556 1557 1556 1557 1557 1557 1557 1557 1557 1557 1557 1557 1557 1557 1557 1557 1557 1557 1557 1557 1556 1556 1556 1556 1556 1556 1556 1557 1557 1558 1559 1559 1560 1560 1561 1562 1562 1561 1560 1558 1557 1556 1555 1555 1554 1553 1552 1551 1550 1550 1550 1549 1549 1548 1549 1549 1549 1549 1548 1548 1547 1547
1545 1547 1548 1549 1549 1549 1550 1551 1552 1553 1553 1554 1554 1554 1554 1554 1554 1554 1554 1554 1554 1555 1555 1555 1555 1555 1555 1555 1555 1555 1555 1555 1555 1555 1555 1555 1555 1555 1555 1555 1554 1554 1554 1554 1554 1554 1554 1554 1554 1554 1554 1555 1555 1556 1557 1557 1557 1558 1558 1558 1557 1556 1555 1554 1552 1552 1551 1551 1550 1550 1549 1548 1547 1547 1546 1546 1545 1545 1545 1545 1545 1544 1544 1543 1544
1545 1546 1548 1548 1548 1549 1549 1550 1551 1552 1552 1553 1554 1553 1553 1553 1553 1553 1553 1553 1553 1554 1553 1553 1554 1554 1554 1554 1554 1553 1553 1553 1553 1553 1553 1553 1553 1553 1553 1553 1553 1552 1552 1552 1552 1552 1552 1552 1552 1552 1552 1552 1553 1554 1554 1554 1554 1554 1554 1554 1553 1552 1551 1550 1549 1548 1548 1547 1547 1547 1546 1546 1545 1544 1543 1543 1542 1542 1541 1541 1541 1541 1540 1540 1540
1545 1546 1547 1548 1548 1549 1549 1549 1550 1551 1552 1552 1553 1553 1553 1553 1552 1552 1552 1552 1552 1552 1552 1552 1552 1552 1552 1552 1552 1552 1551 1551 1551 1551 1551 1551 1551 1550 1550 1551 1551 1551 1550 1550 1550 1550 1550 1550 1550 1550 1550 1549 1550 1551 1552 1552 1552 1551 1551 1550 1549 1548 1547 1547 1546 1545 1544 1544 1544 1543 1543 1542 1542 1541 1540 1540 1539 1538 1538 1537 1537 1537 1537 1536 1536
1545 1546 1546 1547 1548 1548 1549 1549 1550 1550 1551 1551 1551 1552 1552 1552 1551 1551 1551 1551 1551 1551 1551 1551 1551 1550 1550 1550 1550 1550 1549 1549 1549 1548 1548 1548 1549 1549 1548 1548 1549 1549 1549 1548 1548 1548 1548 1548 1548 1548 1548 1547 1547 1547 1548 1548 1548 1548 1548 1547 1546 1545 1544 1543 1542 1542 1541 1540 1540 1539 1539 1539 1538 1538 1537 1536 1536 1535 1534 1534 1533 1533 1533 1532 1532
1544 1545 1545 1546 1547 1547 1548 1548 1549 1549 1549 1550 1550 1550 1550 1550 1550 1549 1549 1549 1549 1549 1549 1549 1549 1549 1548 1548 1548 1547 1547 1547 1547 1547 1546 1546 1546 1547 1547 1547 1547 1547 1547 1548 1547 1547 1547 1546 1546 1545 1546 1545 1545 1544 1544 1544 1544 1545 1545 1544 1543 1542 1541 1540 1539 1538 1537 1537 1537 1536 1536 1536 1536 1535 1534 1533 1532 1531 1530 1530 1529 1529 1529 1529 1528